Simultaneous Nadir Overpasses (SNOs) Predictions

Prediction of SNOs between LANDSAT-8 and METOP-B Satellite Orbit:

Table of predicted SNOs for the next 14.0 days since TLE Epoch: 10/9/2018
Index Date (LANDSAT-8) Time (LANDSAT-8) Lat,Lon (LANDSAT-8) SZA (LANDSAT-8 ) Date (METOP-B) Time (METOP-B) Lat,Lon (METOP-B) SZA (METOP-B ) Distance(km) Time Diff (sec)
1 10/10/2018 07:31:06 81.17, 107.98 90.25 10/10/2018 07:30:26 81.17, 107.89 90.22 1.50 40
2 10/10/2018 08:20:32 -81.20, -84.04 89.69 10/10/2018 08:21:05 -81.20, -83.86 89.65 3.09 33
3 10/13/2018 03:05:20 81.17, 174.42 91.32 10/13/2018 03:04:48 81.18, 174.57 91.33 2.65 32
4 10/13/2018 03:54:46 -81.20, -17.58 88.62 10/13/2018 03:55:28 -81.20, -17.56 88.60 0.28 42
5 10/15/2018 22:39:32 81.18,-118.98 92.40 10/15/2018 22:39:10 81.18,-119.13 92.37 2.57 22
6 10/15/2018 23:28:58 -81.21, 49.04 87.53 10/15/2018 23:29:49 -81.20, 49.12 87.50 1.41 51
7 10/18/2018 18:13:45 81.18, -52.60 93.43 10/18/2018 18:13:32 81.19, -52.44 93.45 2.79 13
8 10/18/2018 19:03:11 -81.20, 115.45 86.50 10/18/2018 19:04:12 -81.20, 115.43 86.48 0.52 61
9 10/21/2018 13:47:57 81.18, 13.95 94.46 10/21/2018 13:47:55 81.18, 13.88 94.45 1.24 2




NCC Satellite Simultaneous Nadir Overpasses (SNOs) Prediction Service
